Regional Weather Roundup
Issued by NWS

Home | Current Version | Previous Version | Text Only | Print | Product List | Glossary Off
Versions: 1 2 3 4 5 6 7 8 9 10 11 12 13 14 15 16 17 18 19 20 21 22 23 24 25 26 27 28 29 30 31 32 33 34 35 36 37 38 39 40 41 42 43 44 45 46 47 48 49 50

077
ASUS43 KOAX 051902
RWRNE

WEATHER ROUNDUP FOR NEBRASKA
NATIONAL WEATHER SERVICE OMAHA NE
100 PM CST MON DEC 05 2016

NOTES: SATELLITE DATA IS BEING USED TO AUGMENT CLOUD COVER ABOVE
       12000 FEET.
       "FAIR" INDICATES FEW OR NO CLOUDS BELOW 12,000 FEET WITH NO
       SIGNIFICANT WEATHER AND/OR OBSTRUCTIONS TO VISIBILITY.

  * THESE STATIONS DO NOT REPORT WEATHER SUCH AS RAIN...SNOW OR FOG.

NEZ001>004-019>022-054>056-052000-
NEBRASKA PANHANDLE

CITY           SKY/WX    TMP DP  RH WIND       PRES   REMARKS
SCOTTSBLUFF    SUNNY     40  24  53 NW25G33   29.66R WCI  29
ALLIANCE       PTSUNNY   37  26  64 N18       29.62R WCI  27
CHADRON        CLOUDY    32  26  78 W13       29.69R WCI  22
KIMBALL        SUNNY     43  15  32 NW37G55   29.65R
SIDNEY         CLOUDY    47  12  24 NW37G53   29.62S
$$

NEZ057>060-069>072-079>082-052000-
SOUTHWEST NEBRASKA

CITY           SKY/WX    TMP DP  RH WIND       PRES   REMARKS
NORTH PLATTE   CLOUDY    50  24  36 NW10      29.57F
IMPERIAL       PTSUNNY   51  21  30 NW7       29.56F
LEXINGTON      MOSUNNY   47  25  41 S7        29.56F
MCCOOK         MOSUNNY   50  22  33 VRB6      29.56F
OGALLALA       CLOUDY    47  22  37 SW8       29.60R
$$

NEZ005>010-023>029-035>040-094-052000-
NORTH CENTRAL NEBRASKA

CITY           SKY/WX    TMP DP  RH WIND       PRES   REMARKS
VALENTINE      CLOUDY    37  29  72 NW20G26   29.59R WCI  27
AINSWORTH      SUNNY     42  30  63 NW25G32   29.56R
BROKEN BOW     MOSUNNY   52  28  39 W3        29.51F
O`NEILL        SUNNY     53  28  37 SW10G17   29.49S
ORD            CLOUDY    45  25  45 S6        29.53S
$$

NEZ041-046>049-061>064-073>077-083>087-052000-
SOUTH CENTRAL NEBRASKA

CITY           SKY/WX    TMP DP  RH WIND       PRES   REMARKS
GRAND ISLAND   SUNNY     47  32  56 S15       29.58F
AURORA         SUNNY     49  33  54 SW14G20   29.60F
HASTINGS       SUNNY     49  32  52 S13G20    29.60F
HEBRON         SUNNY     48  36  62 S7        29.65F
HOLDREGE       SUNNY     49  27  42 S7        29.58F
KEARNEY *      SUNNY     46  28  49 S12       29.58F
YORK           MOSUNNY   46  36  66 S16       29.61F
$$

NEZ011>018-030>034-042>045-052000-
NORTHEAST NEBRASKA

CITY           SKY/WX    TMP DP  RH WIND       PRES   REMARKS
NORFOLK        CLOUDY    43  31  62 S18G32    29.54F
ALBION         CLOUDY    45  30  56 S12       29.57S
BLAIR          MOSUNNY   46  36  68 S21       29.63F
FREMONT        CLOUDY    46  34  63 S16G26    29.63F
TEKAMAH        CLOUDY    44  35  70 S21       29.63F
WAYNE          CLOUDY    44  33  65 S21G30    29.55F
$$

NEZ050>053-065>068-078-088>093-052000-
SOUTHEAST NEBRASKA

CITY           SKY/WX    TMP DP  RH WIND       PRES   REMARKS
LINCOLN        MOSUNNY   49  36  61 S18       29.65F
OMAHA EPPLEY   PTSUNNY   47  35  63 S22       29.67F
BEATRICE       SUNNY     53  34  49 S16       29.66F
FALLS CITY     SUNNY     49  36  61 S20G31    29.74F
NEBRASKA CITY  SUNNY     49  33  54 S17       29.71F
$$

NEZ044-045-051>053-067-052000-
OMAHA AREA

CITY           SKY/WX    TMP DP  RH WIND       PRES   REMARKS
OMAHA EPPLEY   PTSUNNY   47  35  63 S22       29.67F
BLAIR          MOSUNNY   46  36  68 S21       29.63F
FREMONT        CLOUDY    46  34  63 S16G26    29.63F
MILLARD        PTSUNNY   48  35  60 SE14G20   29.66F
OFFUTT AFB     MOSUNNY   48  38  69 SE13G23   29.68F
WAHOO          FAIR      44  35  70 S13       29.65S
$$




USA.gov is the U.S. government's official web portal to all federal, state and local government web resources and services.